UAL1783 KLAX-KBOS

Flight info

Callsign UAL1783
Flight time N/A
Altitude 37000
Route DOTSS2 CLEEE PKE J96 CIM SLN IRK JOT J146 GIJ J554 JHW Q82 PONCT JFUND2
Aircraft B38M/M-SDE1FGHILORVWXY/HB1

Departure

Time N/A
Airport Los Angeles International Airport (KLAX)

Arrival

Time 2026-05-06 17:40
Airport Boston Logan International Airport (KBOS)
Time Latitude Longitude Altitude Speed Heading
2026-05-06 16:08 41.72910 -86.69919 37033 ft 558 kts 82°
2026-05-06 16:08 41.73990 -86.59639 37031 ft 558 kts 82°
2026-05-06 16:09 41.75054 -86.49422 37027 ft 557 kts 82°
2026-05-06 16:09 41.76117 -86.39152 37030 ft 556 kts 82°
2026-05-06 16:10 41.77207 -86.28903 37022 ft 555 kts 82°
2026-05-06 16:10 41.78324 -86.18745 37028 ft 555 kts 82°
2026-05-06 16:11 41.79434 -86.08527 37009 ft 554 kts 82°
2026-05-06 16:11 41.80535 -85.98309 37007 ft 554 kts 82°
2026-05-06 16:12 41.81627 -85.88091 37002 ft 553 kts 82°
2026-05-06 16:12 41.82708 -85.77881 36997 ft 553 kts 82°
2026-05-06 16:13 41.83773 -85.67740 37004 ft 553 kts 82°
2026-05-06 16:13 41.84834 -85.57540 37006 ft 553 kts 82°
2026-05-06 16:14 41.85887 -85.47331 37005 ft 552 kts 82°
2026-05-06 16:14 41.86930 -85.37125 37008 ft 552 kts 82°
2026-05-06 16:15 41.87958 -85.26995 37004 ft 552 kts 82°
2026-05-06 16:15 41.88982 -85.16799 37010 ft 551 kts 83°
2026-05-06 16:16 41.89999 -85.06600 37008 ft 551 kts 83°
2026-05-06 16:16 41.91005 -84.96414 37007 ft 551 kts 83°
2026-05-06 16:17 41.91996 -84.86291 37008 ft 550 kts 83°
2026-05-06 16:17 41.92984 -84.76105 36988 ft 550 kts 83°
2026-05-06 16:18 41.93962 -84.65922 36991 ft 550 kts 83°
2026-05-06 16:18 41.94931 -84.55728 36991 ft 550 kts 83°
2026-05-06 16:19 41.95886 -84.45599 36990 ft 550 kts 83°
2026-05-06 16:19 41.96838 -84.35400 36982 ft 550 kts 83°
2026-05-06 16:20 41.97781 -84.25196 36993 ft 550 kts 83°
2026-05-06 16:20 41.98713 -84.15001 36993 ft 550 kts 83°
2026-05-06 16:21 41.99632 -84.04861 36992 ft 550 kts 83°
2026-05-06 16:21 42.00546 -83.94658 36990 ft 550 kts 84°
2026-05-06 16:22 42.01453 -83.84454 36972 ft 549 kts 84°
2026-05-06 16:22 42.02349 -83.74257 36962 ft 549 kts 84°
2026-05-06 16:23 42.03229 -83.64129 36969 ft 549 kts 84°
2026-05-06 16:23 42.04110 -83.53921 36974 ft 549 kts 84°
2026-05-06 16:24 42.04858 -83.43711 36980 ft 548 kts 88°
2026-05-06 16:24 42.05287 -83.35195 36956 ft 548 kts 87°
2026-05-06 16:25 42.05916 -83.23299 36961 ft 549 kts 87°
2026-05-06 16:25 42.06442 -83.13041 36960 ft 549 kts 87°
2026-05-06 16:26 42.06848 -83.04532 36962 ft 549 kts 87°
2026-05-06 16:26 42.07333 -82.94287 36957 ft 549 kts 87°
2026-05-06 16:27 42.07809 -82.84032 36961 ft 549 kts 88°
2026-05-06 16:27 42.08350 -82.72133 36953 ft 548 kts 88°
2026-05-06 16:28 42.08730 -82.63616 36953 ft 548 kts 88°
2026-05-06 16:28 42.09178 -82.53372 36949 ft 548 kts 88°
2026-05-06 16:29 42.09687 -82.41470 36951 ft 547 kts 88°
2026-05-06 16:29 42.10048 -82.32868 36939 ft 552 kts 89°
2026-05-06 16:30 42.10402 -82.24237 36950 ft 557 kts 89°
2026-05-06 16:30 42.10890 -82.12118 36953 ft 558 kts 89°
2026-05-06 16:31 42.11299 -82.01691 36956 ft 558 kts 89°
2026-05-06 16:31 42.11696 -81.91333 36951 ft 558 kts 89°
2026-05-06 16:32 42.12086 -81.80899 36945 ft 558 kts 89°
2026-05-06 16:32 42.12468 -81.70464 36942 ft 558 kts 89°
2026-05-06 16:33 42.12840 -81.60023 36940 ft 558 kts 89°
2026-05-06 16:34 42.13381 -81.44421 36939 ft 558 kts 89°
2026-05-06 16:34 42.13725 -81.33975 36935 ft 558 kts 89°
2026-05-06 16:35 42.14064 -81.23518 36932 ft 558 kts 89°
2026-05-06 16:35 42.14445 -81.11375 36932 ft 559 kts 89°
2026-05-06 16:36 42.14710 -81.02674 36930 ft 559 kts 89°
2026-05-06 16:36 42.15020 -80.92216 36926 ft 559 kts 90°
2026-05-06 16:37 42.15322 -80.81742 36922 ft 559 kts 90°
2026-05-06 16:37 42.15614 -80.71269 36915 ft 559 kts 90°
2026-05-06 16:38 42.15894 -80.60860 36910 ft 560 kts 90°
2026-05-06 16:38 42.16167 -80.50377 36914 ft 560 kts 90°
2026-05-06 16:39 42.16430 -80.39893 36916 ft 560 kts 90°
2026-05-06 16:39 42.16683 -80.29394 36923 ft 560 kts 90°
2026-05-06 16:40 42.16925 -80.18968 36925 ft 560 kts 90°
2026-05-06 16:40 42.17159 -80.08482 36918 ft 560 kts 90°
2026-05-06 16:41 42.17384 -79.97978 36917 ft 560 kts 90°
2026-05-06 16:41 42.17598 -79.87486 36908 ft 560 kts 90°
2026-05-06 16:42 42.17804 -79.76990 36891 ft 560 kts 90°
2026-05-06 16:42 42.17999 -79.66561 36888 ft 560 kts 90°
2026-05-06 16:43 42.18185 -79.56057 36888 ft 560 kts 90°
2026-05-06 16:43 42.18362 -79.45572 36894 ft 560 kts 90°
2026-05-06 16:44 42.18529 -79.35065 36890 ft 560 kts 90°
2026-05-06 16:44 42.18686 -79.24628 36898 ft 561 kts 90°
2026-05-06 16:45 42.18841 -79.14119 36886 ft 561 kts 89°
2026-05-06 16:45 42.19958 -79.03713 36866 ft 561 kts 80°
2026-05-06 16:46 42.21275 -78.93337 36871 ft 562 kts 80°
2026-05-06 16:46 42.22587 -78.83020 36861 ft 562 kts 80°
2026-05-06 16:47 42.23896 -78.72635 36858 ft 561 kts 80°
2026-05-06 16:47 42.24547 -78.67453 36967 ft 555 kts 79°
2026-05-06 16:47 42.25178 -78.62402 36950 ft 537 kts 79°
2026-05-06 16:47 42.25787 -78.57510 36943 ft 524 kts 79°
2026-05-06 16:48 42.26387 -78.52673 36889 ft 522 kts 79°
2026-05-06 16:48 42.27569 -78.43096 36871 ft 520 kts 79°
2026-05-06 16:49 42.28749 -78.33465 36870 ft 520 kts 79°
2026-05-06 16:49 42.29919 -78.23847 36865 ft 519 kts 79°
2026-05-06 16:50 42.31080 -78.14233 36862 ft 518 kts 79°
2026-05-06 16:50 42.32223 -78.04699 36863 ft 517 kts 79°
2026-05-06 16:51 42.33365 -77.95107 36867 ft 517 kts 79°
2026-05-06 16:51 42.34500 -77.85523 36870 ft 516 kts 79°
2026-05-06 16:52 42.35619 -77.75954 36870 ft 515 kts 79°
2026-05-06 16:52 42.36725 -77.66455 36861 ft 514 kts 79°
2026-05-06 16:53 42.37829 -77.56900 36872 ft 514 kts 79°
2026-05-06 16:53 42.38922 -77.47368 36875 ft 513 kts 80°
2026-05-06 16:54 42.40006 -77.37849 36878 ft 512 kts 80°
2026-05-06 16:54 42.41072 -77.28408 36868 ft 510 kts 80°
2026-05-06 16:55 42.42134 -77.18926 36870 ft 509 kts 80°
2026-05-06 16:55 42.43187 -77.09465 36862 ft 507 kts 80°
2026-05-06 16:56 42.44226 -77.00033 36865 ft 507 kts 81°
2026-05-06 16:56 42.45247 -76.90665 36857 ft 506 kts 81°
2026-05-06 16:57 42.46267 -76.81239 36862 ft 506 kts 81°
2026-05-06 16:57 42.47284 -76.71807 36852 ft 506 kts 81°
2026-05-06 16:58 42.48294 -76.62388 36843 ft 506 kts 81°
2026-05-06 16:58 42.49288 -76.53035 36840 ft 504 kts 81°
2026-05-06 16:59 42.50280 -76.43633 36839 ft 503 kts 81°
2026-05-06 16:59 42.51261 -76.34254 36842 ft 502 kts 81°
2026-05-06 17:00 42.52230 -76.24878 36841 ft 502 kts 81°
2026-05-06 17:00 42.53182 -76.15590 36836 ft 500 kts 82°
2026-05-06 17:01 42.54130 -76.06264 36836 ft 499 kts 82°
2026-05-06 17:01 42.55068 -75.96963 36817 ft 496 kts 82°
2026-05-06 17:02 42.55988 -75.87754 36807 ft 495 kts 82°
2026-05-06 17:02 42.56907 -75.78499 36805 ft 494 kts 82°
2026-05-06 17:03 42.57816 -75.69266 36802 ft 493 kts 83°
2026-05-06 17:03 42.58717 -75.60052 36801 ft 492 kts 83°
2026-05-06 17:04 42.59602 -75.50929 36802 ft 491 kts 83°
2026-05-06 17:04 42.60484 -75.41755 36804 ft 489 kts 83°
2026-05-06 17:05 42.61357 -75.32597 36801 ft 489 kts 83°
2026-05-06 17:05 42.62222 -75.23445 36794 ft 489 kts 84°
2026-05-06 17:06 42.63073 -75.14360 36796 ft 488 kts 84°
2026-05-06 17:06 42.63923 -75.05208 36779 ft 489 kts 84°
2026-05-06 17:07 42.64765 -74.96062 36780 ft 488 kts 84°
2026-05-06 17:07 42.65599 -74.86925 36787 ft 488 kts 84°
2026-05-06 17:08 42.66420 -74.77844 36767 ft 487 kts 84°
2026-05-06 17:08 42.67238 -74.68714 36766 ft 487 kts 84°
2026-05-06 17:09 42.68049 -74.59576 36768 ft 487 kts 84°
2026-05-06 17:09 42.68853 -74.50435 36768 ft 488 kts 84°
2026-05-06 17:10 42.69646 -74.41337 36763 ft 488 kts 84°
2026-05-06 17:10 42.70437 -74.32174 36770 ft 489 kts 84°
2026-05-06 17:11 42.71222 -74.22999 36775 ft 488 kts 84°
2026-05-06 17:11 42.71999 -74.13823 36792 ft 488 kts 84°
2026-05-06 17:12 42.72762 -74.04722 36802 ft 487 kts 84°
2026-05-06 17:12 42.73523 -73.95575 36787 ft 487 kts 84°
2026-05-06 17:13 42.74277 -73.86446 36784 ft 485 kts 84°
2026-05-06 17:13 42.74652 -73.77302 36789 ft 484 kts 92°
2026-05-06 17:14 42.74606 -73.68202 36783 ft 484 kts 92°
2026-05-06 17:14 42.74541 -73.59041 36783 ft 485 kts 92°
2026-05-06 17:15 42.74466 -73.49900 36786 ft 485 kts 92°
2026-05-06 17:15 42.74385 -73.40718 36819 ft 486 kts 92°
2026-05-06 17:16 42.74296 -73.31541 36833 ft 485 kts 92°
2026-05-06 17:16 42.74200 -73.22288 36831 ft 493 kts 92°
2026-05-06 17:17 42.74092 -73.12977 36827 ft 496 kts 93°
2026-05-06 17:17 42.73183 -73.03724 36823 ft 491 kts 101°
2026-05-06 17:17 42.72665 -72.99181 36161 ft 488 kts 101°
2026-05-06 17:18 42.72129 -72.94551 34884 ft 501 kts 101°
2026-05-06 17:18 42.71586 -72.89869 33932 ft 499 kts 100°
2026-05-06 17:18 42.71046 -72.85244 32981 ft 492 kts 101°
2026-05-06 17:18 42.70510 -72.80670 31905 ft 489 kts 101°
2026-05-06 17:19 42.69978 -72.76136 31052 ft 481 kts 101°
2026-05-06 17:19 42.69460 -72.71748 30325 ft 472 kts 101°
2026-05-06 17:19 42.68944 -72.67387 29429 ft 465 kts 102°
2026-05-06 17:19 42.68432 -72.63079 28503 ft 458 kts 102°
2026-05-06 17:20 42.67921 -72.58864 27666 ft 450 kts 102°
2026-05-06 17:20 42.67410 -72.54652 26911 ft 449 kts 102°
2026-05-06 17:20 42.66904 -72.50484 26455 ft 444 kts 103°
2026-05-06 17:20 42.66403 -72.46380 26004 ft 438 kts 103°
2026-05-06 17:21 42.65906 -72.42316 25477 ft 435 kts 103°
2026-05-06 17:21 42.65412 -72.38285 25032 ft 430 kts 103°
2026-05-06 17:21 42.64928 -72.34346 24494 ft 428 kts 103°
2026-05-06 17:21 42.64460 -72.30391 23935 ft 420 kts 103°
2026-05-06 17:22 42.64008 -72.26475 23192 ft 417 kts 103°
2026-05-06 17:22 42.63555 -72.22588 22063 ft 419 kts 103°
2026-05-06 17:22 42.63097 -72.18671 20917 ft 421 kts 103°
2026-05-06 17:22 42.62636 -72.14739 19814 ft 422 kts 103°
2026-05-06 17:23 42.62172 -72.10803 18745 ft 423 kts 103°
2026-05-06 17:23 42.61707 -72.06864 17638 ft 423 kts 103°
2026-05-06 17:23 42.61252 -72.03064 17745 ft 389 kts 104°
2026-05-06 17:23 42.60816 -71.99540 17209 ft 379 kts 104°
2026-05-06 17:24 42.60376 -71.95996 16710 ft 384 kts 104°
2026-05-06 17:24 42.59931 -71.92408 16264 ft 388 kts 104°
2026-05-06 17:24 42.59483 -71.88797 15794 ft 388 kts 104°
2026-05-06 17:24 42.59033 -71.85177 15313 ft 390 kts 104°
2026-05-06 17:25 42.58540 -71.81546 14733 ft 392 kts 107°
2026-05-06 17:25 42.57965 -71.77930 14218 ft 392 kts 107°
2026-05-06 17:25 42.57396 -71.74317 13759 ft 391 kts 107°
2026-05-06 17:25 42.56842 -71.70775 13253 ft 389 kts 107°
2026-05-06 17:26 42.56282 -71.67188 12696 ft 388 kts 107°
2026-05-06 17:26 42.55723 -71.63616 12221 ft 385 kts 107°
2026-05-06 17:26 42.55176 -71.60123 12027 ft 373 kts 108°
2026-05-06 17:26 42.54510 -71.56787 11700 ft 362 kts 111°
2026-05-06 17:27 42.53825 -71.53519 11319 ft 358 kts 114°
2026-05-06 17:27 42.53160 -71.50309 10937 ft 347 kts 114°
2026-05-06 17:27 42.52528 -71.47231 10618 ft 330 kts 115°
2026-05-06 17:27 42.51936 -71.44345 10306 ft 315 kts 115°
2026-05-06 17:28 42.51363 -71.41553 10053 ft 299 kts 116°
2026-05-06 17:28 42.50828 -71.38934 10029 ft 280 kts 117°
2026-05-06 17:28 42.50298 -71.36372 9836 ft 289 kts 116°
2026-05-06 17:28 42.49763 -71.33705 9457 ft 297 kts 116°
2026-05-06 17:29 42.49222 -71.30992 9119 ft 299 kts 115°
2026-05-06 17:29 42.48675 -71.28256 8775 ft 303 kts 115°
2026-05-06 17:29 42.48118 -71.25481 8393 ft 308 kts 115°
2026-05-06 17:29 42.47562 -71.22709 8007 ft 309 kts 115°
2026-05-06 17:30 42.47002 -71.19920 7648 ft 306 kts 115°
2026-05-06 17:30 42.46493 -71.17130 7240 ft 308 kts 106°
2026-05-06 17:30 42.46664 -71.14185 6798 ft 322 kts 78°
2026-05-06 17:30 42.47606 -71.11442 6462 ft 319 kts 67°
2026-05-06 17:31 42.48606 -71.08802 6123 ft 312 kts 67°
2026-05-06 17:31 42.49840 -71.06436 5940 ft 301 kts 40°
2026-05-06 17:31 42.51560 -71.05137 6049 ft 272 kts 15°
2026-05-06 17:31 42.53252 -71.04301 6040 ft 253 kts 15°
2026-05-06 17:32 42.54878 -71.03498 6039 ft 248 kts 15°
2026-05-06 17:32 42.56498 -71.02699 6047 ft 248 kts 15°
2026-05-06 17:32 42.58128 -71.01893 5853 ft 249 kts 16°
2026-05-06 17:32 42.59625 -71.00694 5407 ft 254 kts 43°
2026-05-06 17:33 42.60694 -70.98760 4625 ft 263 kts 71°
2026-05-06 17:33 42.61112 -70.96380 3965 ft 256 kts 95°
2026-05-06 17:33 42.60822 -70.94226 3735 ft 208 kts 132°
2026-05-06 17:33 42.60008 -70.92903 3812 ft 175 kts 164°
2026-05-06 17:34 42.58991 -70.92125 3909 ft 160 kts 179°
2026-05-06 17:34 42.57931 -70.91628 3797 ft 166 kts 172°
2026-05-06 17:34 42.56866 -70.91076 3581 ft 156 kts 184°
2026-05-06 17:34 42.55888 -70.91282 3414 ft 138 kts 203°
2026-05-06 17:35 42.54965 -70.91653 3359 ft 138 kts 203°
2026-05-06 17:35 42.54053 -70.92048 3298 ft 137 kts 205°
2026-05-06 17:35 42.53152 -70.92462 3172 ft 139 kts 205°
2026-05-06 17:36 42.51316 -70.93335 2845 ft 142 kts 204°
2026-05-06 17:36 42.50380 -70.93786 2675 ft 143 kts 203°
2026-05-06 17:36 42.49436 -70.94241 2494 ft 145 kts 203°
2026-05-06 17:36 42.48494 -70.94699 2321 ft 141 kts 204°
2026-05-06 17:37 42.47598 -70.95133 2149 ft 133 kts 202°
2026-05-06 17:37 42.46749 -70.95543 1984 ft 126 kts 202°
2026-05-06 17:37 42.45943 -70.95934 1821 ft 122 kts 201°
2026-05-06 17:37 42.45153 -70.96318 1658 ft 122 kts 200°
2026-05-06 17:38 42.44348 -70.96709 1483 ft 124 kts 200°
2026-05-06 17:38 42.43541 -70.97099 1316 ft 124 kts 199°
2026-05-06 17:38 42.42730 -70.97492 1154 ft 124 kts 198°
2026-05-06 17:38 42.41908 -70.97888 989 ft 127 kts 200°
2026-05-06 17:39 42.41065 -70.98299 828 ft 129 kts 200°
2026-05-06 17:39 42.40212 -70.98711 644 ft 133 kts 200°
2026-05-06 17:39 42.39358 -70.99128 462 ft 128 kts 197°
2026-05-06 17:39 42.38511 -70.99533 348 ft 130 kts 198°
2026-05-06 17:40 42.37653 -70.99942 138 ft 131 kts 199°
2026-05-06 17:40 42.36822 -71.00356 34 ft 121 kts 198°
2026-05-06 17:40 42.36256 -71.00623 29 ft 68 kts 201°
2026-05-06 17:40 42.35994 -71.00750 29 ft 16 kts 199°
2026-05-06 17:41 42.35919 -71.00786 28 ft 16 kts 199°
2026-05-06 17:41 42.35819 -71.00906 24 ft 14 kts 266°
2026-05-06 17:41 42.35828 -71.01048 25 ft 16 kts 277°
2026-05-06 17:41 42.35842 -71.01211 26 ft 18 kts 276°
2026-05-06 17:42 42.35857 -71.01387 28 ft 19 kts 279°
2026-05-06 17:42 42.35883 -71.01567 30 ft 20 kts 281°
2026-05-06 17:42 42.35906 -71.01747 31 ft 20 kts 283°
2026-05-06 17:42 42.35967 -71.01934 27 ft 24 kts 301°
2026-05-06 17:43 42.36055 -71.02128 27 ft 25 kts 300°
2026-05-06 17:43 42.36152 -71.02270 26 ft 21 kts 358°
2026-05-06 17:43 42.36297 -71.02219 26 ft 19 kts
2026-05-06 17:43 42.36363 -71.02164 28 ft 0 kts 41°